CW5842 Weather Reports


Display with metric or nautical units.
time (UTC)temp
F
wind
direction
speed
MPH
gust
MPH
rain 1hr
in
rain 24hr
in
rain mn
in
humidity
%
barometer
mb
20190215191705 81 313 5.0 14.0 0.00 0.00 0.00 36 1004.1
20190215191205 80 265 5.0 14.0 0.00 0.00 0.00 37 1004.1
20190215190706 80 272 5.0 12.0 0.00 0.00 0.00 38 1004.2
20190215190205 80 300 5.0 10.0 0.00 0.00 0.00 37 1004.2
20190215185706 80 355 4.0 10.0 0.00 0.00 0.00 38 1004.3
20190215185206 79 309 4.0 11.0 0.00 0.00 0.00 39 1004.5
20190215184705 79 240 4.0 11.0 0.00 0.00 0.00 41 1004.6
20190215184206 78 306 5.0 11.0 0.00 0.00 0.00 40 1004.6
20190215183705 78 292 5.0 11.0 0.00 0.00 0.00 40 1004.5
20190215183207 78 290 5.0 11.0 0.00 0.00 0.00 40 1004.9
20190215182705 78 317 5.0 11.0 0.00 0.00 0.00 41 1004.9
20190215182205 78 321 5.0 11.0 0.00 0.00 0.00 41 1005.1
20190215181706 78 320 4.0 11.0 0.00 0.00 0.00 40 1005.1
20190215181205 78 242 3.0 8.0 0.00 0.00 0.00 44 1005.1
20190215180705 77 226 3.0 8.0 0.00 0.00 0.00 44 1005.3
20190215180206 77 245 3.0 8.0 0.00 0.00 0.00 45 1005.0
20190215175705 76 263 3.0 8.0 0.00 0.00 0.00 46 1005.1
20190215175205 76 245 3.0 7.0 0.00 0.00 0.00 46 1005.2
20190215174705 75 217 2.0 7.0 0.00 0.00 0.00 48 1005.2
20190215174206 75 129 3.0 7.0 0.00 0.00 0.00 48 1005.1
20190215173714 74 251 3.0 7.0 0.00 0.00 0.00 49 1005.1
20190215173206 74 208 3.0 8.0 0.00 0.00 0.00 48 1005.1
20190215172706 73 226 3.0 9.0 0.00 0.00 0.00 49 1005.3
20190215172205 73 271 3.0 9.0 0.00 0.00 0.00 50 1005.5
20190215171706 72 291 3.0 9.0 0.00 0.00 0.00 51 1005.6
20190215171205 72 323 2.0 6.0 0.00 0.00 0.00 52 1005.7
20190215170705 71 223 2.0 6.0 0.00 0.00 0.00 54 1005.7
20190215170206 71 244 3.0 6.0 0.00 0.00 0.00 54 1005.7
20190215165706 70 274 3.0 7.0 0.00 0.00 0.00 55 1005.6
20190215165205 69 290 2.0 7.0 0.00 0.00 0.00 56 1005.8
20190215164705 69 299 2.0 7.0 0.00 0.00 0.00 56 1005.6
20190215164205 69 296 3.0 7.0 0.00 0.00 0.00 57 1005.4
20190215163705 68 302 3.0 5.0 0.00 0.00 0.00 58 1005.5
20190215163205 68 247 2.0 5.0 0.00 0.00 0.00 60 1005.4
20190215162706 67 281 2.0 4.0 0.00 0.00 0.00 61 1005.6
20190215162206 67 250 1.0 4.0 0.00 0.00 0.00 63 1005.7
20190215161724 67 205 2.0 4.0 0.00 0.00 0.00 65 1005.6
20190215161205 66 205 2.0 4.0 0.00 0.00 0.00 66 1005.7
20190215160705 66 207 1.0 4.0 0.00 0.00 0.00 67 1005.7
20190215160205 65 207 1.0 4.0 0.00 0.00 0.00 66 1005.9
20190215155706 65 237 1.0 3.0 0.00 0.00 0.00 69 1006.0
20190215155205 64 235 1.0 3.0 0.00 0.00 0.00 71 1006.1
20190215154706 63 235 1.0 3.0 0.00 0.00 0.00 72 1006.1
20190215154206 62 236 1.0 3.0 0.00 0.00 0.00 75 1006.0
20190215153705 61 128 2.0 3.0 0.00 0.00 0.00 79 1006.0
20190215153205 60 128 2.0 3.0 0.00 0.00 0.00 81 1006.0
20190215152706 59 128 1.0 2.0 0.00 0.00 0.00 82 1006.0
20190215152206 58 128 1.0 2.0 0.00 0.00 0.00 85 1006.0
20190215151705 57 128 0.0 3.0 0.00 0.00 0.00 85 1006.2
20190215151205 56 128 0.0 3.0 0.00 0.00 0.00 86 1006.0
20190215150706 55 128 1.0 3.0 0.00 0.00 0.00 86 1006.1
20190215150205 55 128 2.0 3.0 0.00 0.00 0.00 88 1005.9
20190215145705 54 128 2.0 3.0 0.00 0.00 0.00 89 1006.1
20190215145205 53 128 1.0 2.0 0.00 0.00 0.00 90 1006.2
20190215144705 52 128 1.0 2.0 0.00 0.00 0.00 91 1006.1
20190215144206 51 128 0.0 1.0 0.00 0.00 0.00 92 1006.0
20190215143705 50 128 0.0 1.0 0.00 0.00 0.00 92 1005.9
20190215143205 50 128 0.0 2.0 0.00 0.00 0.00 92 1006.0
20190215142705 49 128 0.0 2.0 0.00 0.00 0.00 93 1005.9
20190215142206 49 128 1.0 2.0 0.00 0.00 0.00 93 1005.7
20190215141705 48 128 0.0 2.0 0.00 0.00 0.00 93 1005.6
20190215141205 47 128 0.0 0.0 0.00 0.00 0.00 93 1005.9
20190215140705 47 128 0.0 0.0 0.00 0.00 0.00 92 1005.8
20190215140205 46 128 0.0 0.0 0.00 0.00 0.00 92 1005.7
20190215135705 46 260 0.0 0.0 0.00 0.00 0.00 92 1005.4
20190215135205 46 260 0.0 0.0 0.00 0.00 0.00 92 1005.2
20190215134705 47 260 0.0 0.0 0.00 0.00 0.00 93 1005.4
20190215134205 46 260 0.0 0.0 0.00 0.00 0.00 92 1005.5
20190215133705 46 260 0.0 0.0 0.00 0.00 0.00 91 1005.4
20190215133206 45 260 0.0 0.0 0.00 0.00 0.00 91 1005.3
20190215132705 45 260 0.0 0.0 0.00 0.00 0.00 91 1005.4
20190215132207 46 260 0.0 0.0 0.00 0.00 0.00 90 1005.2
20190215131706 46 260 0.0 0.0 0.00 0.00 0.00 91 1005.2
20190215131206 46 260 0.0 0.0 0.00 0.00 0.00 90 1005.2
20190215130706 46 260 0.0 0.0 0.00 0.00 0.00 91 1005.4
20190215130206 46 260 0.0 0.0 0.00 0.00 0.00 90 1005.5
20190215125705 46 260 0.0 0.0 0.00 0.00 0.00 90 1005.4
20190215125205 47 260 0.0 0.0 0.00 0.00 0.00 90 1005.5
20190215124705 47 260 0.0 0.0 0.00 0.00 0.00 90 1005.4
20190215124206 47 260 0.0 0.0 0.00 0.00 0.00 91 1005.5
20190215123705 47 260 0.0 0.0 0.00 0.00 0.00 90 1005.6
20190215123205 47 260 0.0 0.0 0.00 0.00 0.00 90 1005.6
20190215122706 47 260 0.0 0.0 0.00 0.00 0.00 91 1005.7
20190215122206 47 260 0.0 0.0 0.00 0.00 0.00 91 1005.6
20190215121705 47 260 0.0 0.0 0.00 0.00 0.00 90 1005.7
20190215121205 47 260 0.0 0.0 0.00 0.00 0.00 90 1005.7
20190215120706 47 260 0.0 0.0 0.00 0.00 0.00 89 1005.7
20190215120205 47 260 0.0 0.0 0.00 0.00 0.00 88 1005.7
20190215115706 47 260 0.0 0.0 0.00 0.00 0.00 89 1005.7
20190215115206 48 260 0.0 0.0 0.00 0.00 0.00 90 1005.7
20190215114705 48 260 0.0 0.0 0.00 0.00 0.00 91 1006.0
20190215114206 48 260 0.0 0.0 0.00 0.00 0.00 91 1005.8
20190215113706 47 260 0.0 0.0 0.00 0.00 0.00 90 1005.8
20190215113205 47 260 0.0 0.0 0.00 0.00 0.00 89 1005.7
20190215112706 47 260 0.0 0.0 0.00 0.00 0.00 89 1005.6
20190215112205 48 260 0.0 0.0 0.00 0.00 0.00 89 1005.6
20190215111706 48 260 0.0 0.0 0.00 0.00 0.00 89 1005.6
20190215111205 48 260 0.0 0.0 0.00 0.00 0.00 89 1005.4
20190215110705 49 260 0.0 0.0 0.00 0.00 0.00 88 1005.3
20190215110206 49 260 0.0 0.0 0.00 0.00 0.00 88 1005.1
20190215105706 49 260 0.0 0.0 0.00 0.00 0.00 87 1005.1
20190215105206 49 260 0.0 0.0 0.00 0.00 0.00 87 1005.3
20190215104705 49 260 0.0 0.0 0.00 0.00 0.00 86 1005.2
20190215104205 49 260 0.0 0.0 0.00 0.00 0.00 86 1005.3
20190215103706 50 260 0.0 0.0 0.00 0.00 0.00 87 1005.3
20190215103205 50 260 0.0 0.0 0.00 0.00 0.00 87 1005.5
20190215102705 50 260 0.0 0.0 0.00 0.00 0.00 86 1005.4
20190215102232 50 260 0.0 0.0 0.00 0.00 0.00 86 1005.5
20190215101706 51 260 0.0 0.0 0.00 0.00 0.00 87 1005.4
20190215101205 51 260 0.0 0.0 0.00 0.00 0.00 88 1005.5
20190215100705 51 260 0.0 0.0 0.00 0.00 0.00 87 1005.5
20190215100205 51 260 0.0 0.0 0.00 0.00 0.00 87 1005.5
20190215095705 51 260 0.0 0.0 0.00 0.00 0.00 86 1005.6
20190215095205 51 260 0.0 0.0 0.00 0.00 0.00 85 1005.6
20190215094705 51 260 0.0 0.0 0.00 0.00 0.00 85 1005.4
20190215094205 52 260 0.0 0.0 0.00 0.00 0.00 85 1005.6
20190215093706 52 260 0.0 0.0 0.00 0.00 0.00 85 1005.6
20190215093205 52 260 0.0 0.0 0.00 0.00 0.00 85 1005.6
20190215092705 52 260 0.0 0.0 0.00 0.00 0.00 84 1005.5
20190215092205 52 260 0.0 0.0 0.00 0.00 0.00 84 1005.5
20190215091706 52 260 0.0 0.0 0.00 0.00 0.00 85 1005.7
20190215091205 52 260 0.0 0.0 0.00 0.00 0.00 84 1005.7
20190215090705 52 260 0.0 0.0 0.00 0.00 0.00 84 1005.8
20190215090206 52 260 0.0 0.0 0.00 0.00 0.00 84 1006.0
20190215085705 52 260 0.0 0.0 0.00 0.00 0.00 84 1006.0
20190215085206 53 252 0.0 0.0 0.00 0.00 0.00 82 1006.1
20190215084705 53 251 0.0 0.0 0.00 0.00 0.00 81 1006.2
20190215084205 53 251 0.0 0.0 0.00 0.00 0.00 82 1006.3
20190215083705 53 251 0.0 0.0 0.00 0.00 0.00 82 1006.4
20190215083205 53 251 0.0 0.0 0.00 0.00 0.00 82 1006.3
20190215082706 53 251 0.0 0.0 0.00 0.00 0.00 82 1006.4
20190215082206 53 251 0.0 0.0 0.00 0.00 0.00 83 1006.4
20190215081706 53 251 0.0 0.0 0.00 0.00 0.00 83 1006.5
20190215081205 52 251 0.0 0.0 0.00 0.00 0.00 84 1006.5
20190215080705 52 251 0.0 0.0 0.00 0.00 0.00 84 1006.6
20190215080206 51 246 0.0 0.0 0.00 0.00 0.00 84 1006.7
20190215075705 51 246 0.0 0.0 0.00 0.00 0.00 83 1006.6
20190215075205 51 246 0.0 0.0 0.00 0.00 0.00 82 1006.5
20190215074706 52 246 0.0 0.0 0.00 0.00 0.00 80 1006.5
20190215074206 52 246 0.0 0.0 0.00 0.00 0.00 79 1006.5
20190215073705 53 246 0.0 0.0 0.00 0.00 0.00 78 1006.6
20190215073205 54 246 0.0 0.0 0.00 0.00 0.00 79 1006.6
20190215072706 54 246 0.0 0.0 0.00 0.00 0.00 80 1006.6
20190215072206 53 246 0.0 0.0 0.00 0.00 0.00 80 1006.5
20190215071706 53 246 0.0 0.0 0.00 0.00 0.00 81 1006.6
20190215071205 53 246 0.0 0.0 0.00 0.00 0.00 82 1006.6
20190215070706 52 246 0.0 0.0 0.00 0.00 0.00 83 1006.5
20190215070206 51 246 0.0 0.0 0.00 0.00 0.00 83 1006.5
20190215065705 51 246 0.0 0.0 0.00 0.00 0.00 84 1006.4
20190215065205 51 246 0.0 0.0 0.00 0.00 0.00 84 1006.3
20190215064705 51 246 0.0 0.0 0.00 0.00 0.00 84 1006.3
20190215064206 51 246 0.0 0.0 0.00 0.00 0.00 83 1006.3
20190215063705 51 246 0.0 0.0 0.00 0.00 0.00 82 1006.3
20190215063205 51 246 0.0 0.0 0.00 0.00 0.00 81 1006.3
20190215062706 52 246 0.0 0.0 0.00 0.00 0.00 79 1006.4
20190215062206 53 246 0.0 0.0 0.00 0.00 0.00 79 1006.7
20190215061705 53 246 0.0 0.0 0.00 0.00 0.00 82 1006.8
20190215061205 53 246 0.0 0.0 0.00 0.00 0.00 81 1006.7
20190215060705 53 246 0.0 0.0 0.00 0.00 0.00 82 1006.8
20190215060205 52 246 0.0 0.0 0.00 0.00 0.00 81 1006.7
20190215055705 52 246 0.0 0.0 0.00 0.00 0.00 81 1006.8
20190215055206 52 246 0.0 0.0 0.00 0.00 0.00 79 1006.6
20190215054706 52 246 0.0 0.0 0.00 0.00 0.00 79 1007.0
20190215054206 52 246 0.0 0.0 0.00 0.00 0.00 80 1007.0
20190215053705 53 246 0.0 0.0 0.00 0.00 0.00 80 1007.0
20190215053205 53 246 0.0 1.0 0.00 0.00 0.00 77 1007.0
20190215052706 53 246 0.0 2.0 0.00 0.00 0.00 78 1007.1
20190215052206 53 246 0.0 2.0 0.00 0.00 0.00 80 1007.1
20190215051705 53 246 0.0 2.0 0.00 0.00 0.00 79 1007.1
20190215051205 53 246 0.0 1.0 0.00 0.00 0.00 79 1007.1
20190215050723 54 246 0.0 0.0 0.00 0.00 0.00 77 1007.0
20190215050205 54 246 0.0 2.0 0.00 0.00 0.00 75 1007.2
20190215045705 55 246 0.0 2.0 0.00 0.00 0.00 74 1007.3
20190215045206 55 246 0.0 2.0 0.00 0.00 0.00 74 1007.2
20190215044706 55 246 0.0 1.0 0.00 0.00 0.00 75 1007.1
20190215044206 56 246 0.0 1.0 0.00 0.00 0.00 76 1007.2
20190215043705 56 246 0.0 1.0 0.00 0.00 0.00 75 1007.1
20190215043205 56 246 0.0 1.0 0.00 0.00 0.00 75 1007.3
20190215042705 56 246 0.0 0.0 0.00 0.00 0.00 75 1007.5
20190215042206 56 246 0.0 2.0 0.00 0.00 0.00 72 1007.5
20190215041706 56 246 0.0 2.0 0.00 0.00 0.00 72 1007.4
20190215041205 56 246 1.0 2.0 0.00 0.00 0.00 72 1007.3
20190215040705 56 246 1.0 2.0 0.00 0.00 0.00 72 1007.4
20190215040205 57 246 1.0 2.0 0.00 0.00 0.00 70 1007.4
20190215035706 58 246 1.0 2.0 0.00 0.00 0.00 70 1007.0
20190215035206 58 246 0.0 2.0 0.00 0.00 0.00 70 1007.1
20190215034705 58 246 0.0 2.0 0.00 0.00 0.00 68 1007.0
20190215034205 59 246 1.0 2.0 0.00 0.00 0.00 68 1006.9
20190215033705 59 246 1.0 2.0 0.00 0.00 0.00 68 1007.0
20190215033205 59 246 1.0 5.0 0.00 0.00 0.00 68 1007.2
20190215032705 59 246 1.0 5.0 0.00 0.00 0.00 68 1007.2
20190215032228 58 246 1.0 5.0 0.00 0.00 0.00 69 1007.3
20190215031705 58 315 1.0 2.0 0.00 0.00 0.00 70 1007.2
20190215031205 58 315 0.0 3.0 0.00 0.00 0.00 69 1007.0
20190215030705 58 315 1.0 3.0 0.00 0.00 0.00 69 1006.9
20190215030205 58 315 1.0 3.0 0.00 0.00 0.00 69 1007.0
20190215025707 58 315 0.0 2.0 0.00 0.00 0.00 69 1006.8
20190215025206 58 316 0.0 3.0 0.00 0.00 0.00 68 1006.8
20190215024706 58 316 1.0 3.0 0.00 0.00 0.00 68 1007.1
20190215024205 58 316 1.0 3.0 0.00 0.00 0.00 68 1007.0
20190215023706 59 316 1.0 2.0 0.00 0.00 0.00 66 1006.7
20190215023206 59 316 1.0 2.0 0.00 0.00 0.00 67 1006.6
20190215022705 59 316 1.0 3.0 0.00 0.00 0.00 65 1006.6
20190215022205 60 316 1.0 3.0 0.00 0.00 0.00 65 1006.5
20190215021705 60 316 1.0 3.0 0.00 0.00 0.00 64 1006.7
20190215021205 61 316 0.0 2.0 0.00 0.00 0.00 61 1006.5
20190215020705 61 316 0.0 2.0 0.00 0.00 0.00 61 1006.4
20190215020206 61 316 1.0 3.0 0.00 0.00 0.00 60 1006.4
20190215015705 61 316 1.0 3.0 0.00 0.00 0.00 60 1006.3
20190215015205 61 316 1.0 3.0 0.00 0.00 0.00 61 1006.3
20190215014705 62 317 1.0 2.0 0.00 0.00 0.00 59 1006.3
20190215014205 62 229 1.0 3.0 0.00 0.00 0.00 59 1006.2
20190215013705 63 229 1.0 3.0 0.00 0.00 0.00 57 1006.1
20190215013205 63 229 1.0 2.0 0.00 0.00 0.00 56 1006.1
20190215012705 63 229 1.0 2.0 0.00 0.00 0.00 54 1006.5
20190215012205 64 229 1.0 2.0 0.00 0.00 0.00 54 1006.6
20190215011705 64 229 1.0 2.0 0.00 0.00 0.00 54 1006.5
20190215011206 64 229 1.0 2.0 0.00 0.00 0.00 54 1006.4
20190215010705 65 229 1.0 2.0 0.00 0.00 0.00 53 1006.3
20190215010206 65 229 1.0 2.0 0.00 0.00 0.00 52 1006.1
20190215005706 66 229 1.0 2.0 0.00 0.00 0.00 51 1006.1
20190215005205 67 229 1.0 2.0 0.00 0.00 0.00 52 1006.3
20190215004706 68 229 1.0 2.0 0.00 0.00 0.00 47 1006.2
20190215004206 68 229 1.0 2.0 0.00 0.00 0.00 46 1006.1
20190215003706 69 229 1.0 2.0 0.00 0.00 0.00 47 1006.1
20190215003205 69 229 1.0 2.0 0.00 0.00 0.00 44 1005.9
20190215002705 70 229 0.0 2.0 0.00 0.00 0.00 42 1006.0
20190215002205 71 229 0.0 4.0 0.00 0.00 0.00 42 1005.7
20190215001706 71 229 1.0 4.0 0.00 0.00 0.00 43 1005.8
20190215001205 72 229 1.0 2.0 0.00 0.00 0.00 40 1005.8
20190215000706 73 232 1.0 2.0 0.00 0.00 0.00 39 1005.7
20190215000206 74 232 0.0 2.0 0.00 0.00 0.00 38 1005.6
20190214235706 74 233 0.0 2.0 0.00 0.00 0.00 36 1005.6
20190214235205 75 232 1.0 2.0 0.00 0.00 0.00 35 1005.5
20190214234705 76 232 1.0 2.0 0.00 0.00 0.00 35 1005.4
20190214234206 77 232 1.0 2.0 0.00 0.00 0.00 34 1005.4
20190214233706 77 233 1.0 3.0 0.00 0.00 0.00 32 1005.4
20190214233205 78 232 1.0 5.0 0.00 0.00 0.00 32 1005.2
20190214232705 78 232 1.0 5.0 0.00 0.00 0.00 31 1005.1
20190214232205 79 232 1.0 5.0 0.00 0.00 0.00 31 1005.2
20190214231706 79 232 2.0 6.0 0.00 0.00 0.00 31 1005.3
20190214231205 80 240 2.0 6.0 0.00 0.00 0.00 30 1005.4
20190214230705 80 269 3.0 6.0 0.00 0.00 0.00 30 1005.2
20190214230205 80 202 2.0 5.0 0.00 0.00 0.00 30 1005.2
20190214225706 80 225 2.0 5.0 0.00 0.00 0.00 30 1005.2
20190214225206 80 191 2.0 7.0 0.00 0.00 0.00 30 1005.2
20190214224706 81 215 2.0 10.0 0.00 0.00 0.00 29 1005.5
20190214224205 81 220 3.0 10.0 0.00 0.00 0.00 29 1005.4
20190214223706 81 238 4.0 10.0 0.00 0.00 0.00 28 1005.4
20190214223206 81 196 4.0 9.0 0.00 0.00 0.00 28 1005.2
20190214222705 81 189 3.0 9.0 0.00 0.00 0.00 29 1005.2
20190214222206 81 250 4.0 9.0 0.00 0.00 0.00 29 1005.3
20190214221705 81 177 4.0 9.0 0.00 0.00 0.00 30 1005.1
20190214221205 81 175 4.0 9.0 0.00 0.00 0.00 29 1005.0
20190214220705 81 191 4.0 9.0 0.00 0.00 0.00 29 1005.0
20190214220234 81 248 3.0 9.0 0.00 0.00 0.00 30 1005.1
20190214215705 80 198 3.0 9.0 0.00 0.00 0.00 30 1005.0
20190214215205 80 234 4.0 9.0 0.00 0.00 0.00 30 1005.0
20190214214706 80 175 4.0 9.0 0.00 0.00 0.00 30 1004.9
20190214214205 80 180 4.0 11.0 0.00 0.00 0.00 31 1004.8
20190214213705 80 234 4.0 12.0 0.00 0.00 0.00 30 1004.8
20190214213205 80 187 5.0 12.0 0.00 0.00 0.00 30 1004.8
20190214212705 81 196 4.0 12.0 0.00 0.00 0.00 29 1004.8
20190214212205 81 219 4.0 9.0 0.00 0.00 0.00 30 1005.0
20190214211705 80 213 5.0 12.0 0.00 0.00 0.00 31 1004.9
20190214211205 81 219 4.0 13.0 0.00 0.00 0.00 29 1005.0
20190214210706 81 283 4.0 15.0 0.00 0.00 0.00 29 1005.1
20190214210206 81 241 5.0 15.0 0.00 0.00 0.00 30 1005.2
20190214205706 80 212 5.0 15.0 0.00 0.00 0.00 30 1005.1
20190214205205 80 213 4.0 12.0 0.00 0.00 0.00 32 1005.2
20190214204705 80 219 4.0 12.0 0.00 0.00 0.00 33 1005.3
20190214204205 80 219 4.0 12.0 0.00 0.00 0.00 33 1005.5
20190214203706 80 224 4.0 11.0 0.00 0.00 0.00 33 1005.5
20190214203206 80 223 4.0 7.0 0.00 0.00 0.00 33 1005.5
20190214202705 79 159 3.0 10.0 0.00 0.00 0.00 34 1005.5
20190214202205 79 229 3.0 11.0 0.00 0.00 0.00 35 1005.7
20190214201705 78 178 4.0 11.0 0.00 0.00 0.00 34 1005.8
20190214201205 78 10 4.0 12.0 0.00 0.00 0.00 34 1005.8
20190214200706 78 248 4.0 12.0 0.00 0.00 0.00 35 1005.8
20190214200205 78 324 4.0 12.0 0.00 0.00 0.00 35 1006.1
20190214195705 77 176 4.0 10.0 0.00 0.00 0.00 35 1005.9
20190214195205 77 275 3.0 7.0 0.00 0.00 0.00 37 1006.2
20190214194705 77 267 3.0 14.0 0.00 0.00 0.00 37 1006.0
20190214194205 77 210 4.0 14.0 0.00 0.00 0.00 36 1006.0
20190214193705 77 215 5.0 10.0 0.00 0.00 0.00 36 1006.0
20190214193205 77 246 4.0 12.0 0.00 0.00 0.00 36 1006.0
20190214192705 77 266 4.0 12.0 0.00 0.00 0.00 37 1006.1
20190214192205 76 178 4.0 13.0 0.00 0.00 0.00 38 1006.5